Location: Beekmeers
(50.8953°N, 3.6968°E)
Time: 06:48:26
(UTC+00:00)

SENTINEL 1B - Pass Details

Date: 20 October 2025
Orbit: 561 x 585 km, 98.1° (Epoch: 17 November)

Event Time Altitude Azimuth Distance (km) Brightness Sun altitude
Exits shadow 18:10:50 12° 40° (NE) 1,807 7.4 -14.7°
Drops below altitude 10° 18:11:37 10° 30° (NNE) 1,919 7.6 -14.8°
Sets 18:14:54 0° 1° (N) 2,821 8.8 -15.3°
